EW2692 Weather Reports


Display with metric or nautical units.
time (UTC)temp
F
wind
direction
speed
MPH
gust
MPH
rain 1hr
in
rain 24hr
in
rain mn
in
humidity
%
barometer
mb
20260904194603 86 109 5.0 14.0 0.00 0.01 0.01 43 935.9
20260904193035 86 76 2.0 16.0 0.00 0.01 0.01 46 936.2
20260904191519 85 93 5.0 11.0 0.00 0.01 0.01 46 936.4
20260904190016 85 100 4.0 13.0 0.00 0.01 0.01 47 936.6
20260904184512 84 68 2.0 11.0 0.00 0.01 0.01 51 937.0
20260904183010 83 103 2.0 12.0 0.00 0.01 0.01 51 937.2
20260904181505 83 113 3.0 12.0 0.00 0.01 0.01 52 937.3
20260904180000 81 95 4.0 16.0 0.00 0.01 0.01 54 937.5
20260904174559 81 114 5.0 13.0 0.00 0.01 0.01 55 937.7
20260904173104 81 105 4.0 12.0 0.00 0.01 0.01 56 937.8
20260904171553 80 122 3.0 13.0 0.00 0.01 0.01 58 938.0
20260904170050 79 114 3.0 9.0 0.00 0.01 0.01 61 938.1
20260904164547 77 360 3.0 10.0 0.00 0.01 0.01 64 938.3
20260904163044 77 100 3.0 8.0 0.00 0.01 0.01 66 938.5
20260904161545 76 113 3.0 8.0 0.00 0.01 0.01 68 938.6
20260904160040 75 127 2.0 8.0 0.00 0.01 0.01 70 938.5
20260904154532 73 103 2.0 8.0 0.00 0.01 0.01 75 938.6
20260904153029 72 104 2.0 12.0 0.00 0.01 0.01 78 938.8
20260904151536 71 88 2.0 8.0 0.00 0.01 0.01 80 938.8
20260904150025 69 118 2.0 9.0 0.00 0.01 0.01 85 938.8
20260904144517 68 115 2.0 8.0 0.00 0.01 0.01 88 938.8
20260904143013 66 93 2.0 10.0 0.00 0.01 0.01 91 938.8
20260904141510 65 101 1.0 10.0 0.00 0.01 0.01 93 938.8
20260904140007 64 121 2.0 7.0 0.00 0.01 0.01 94 939.0
20260904134505 64 119 0.0 3.0 0.00 0.01 0.01 95 938.9
20260904133003 63 135 0.0 2.0 0.01 0.01 0.01 96 938.8
20260904131614 63 156 0.0 2.0 0.01 0.01 0.01 97 938.8
20260904130057 62 238 0.0 1.0 0.01 0.01 0.01 97 938.6
20260904124556 61 239 0.0 1.0 0.01 0.01 0.01 97 938.6
20260904123059 61 243 0.0 0.0 0.00 0.00 0.00 96 938.5
20260904121555 61 243 0.0 1.0 0.00 0.00 0.00 96 938.4
20260904120054 61 244 0.0 1.0 0.00 0.00 0.00 96 938.5
20260904114553 62 244 0.0 1.0 0.00 0.00 0.00 96 938.6
20260904113054 62 244 0.0 2.0 0.00 0.00 0.00 96 938.4
20260904111552 61 298 0.0 0.0 0.00 0.00 0.00 95 938.3
20260904110051 61 298 0.0 0.0 0.00 0.00 0.00 95 938.4
20260904104549 62 298 0.0 1.0 0.00 0.00 0.00 96 938.3
20260904103052 61 298 0.0 2.0 0.00 0.00 0.00 97 938.2
20260904101546 60 303 0.0 0.0 0.00 0.00 0.00 96 938.3
20260904100048 60 303 0.0 0.0 0.00 0.00 0.00 95 938.3
20260904094545 60 303 0.0 0.0 0.00 0.00 0.00 95 938.3
20260904093044 60 303 0.0 0.0 0.00 0.00 0.00 96 938.2
20260904091542 60 303 0.0 1.0 0.00 0.00 0.00 96 938.2
20260904090048 60 303 0.0 1.0 0.00 0.00 0.00 95 938.3
20260904084539 60 303 0.0 1.0 0.00 0.39 0.00 95 938.1
20260904083038 60 303 0.0 1.0 0.00 0.39 0.00 95 938.2
20260904081544 60 303 0.0 1.0 0.00 0.39 0.00 95 938.2
20260904080047 60 303 0.0 0.0 0.00 0.39 0.00 95 938.2
20260904074536 60 303 0.0 1.0 0.00 0.65 0.00 96 938.2
20260904073040 59 304 0.0 0.0 0.00 0.65 0.00 94 938.2
20260904071531 59 304 0.0 0.0 0.00 0.65 0.00 94 938.2
20260904070030 59 304 0.0 0.0 0.00 0.65 0.00 94 938.1
20260904064528 59 304 0.0 1.0 0.00 0.70 0.00 93 937.9
20260904063026 58 305 0.0 1.0 0.00 0.70 0.00 91 937.9
20260904061525 58 306 0.0 0.0 0.00 0.70 0.00 87 937.9
20260904060020 58 306 0.0 1.0 0.00 0.70 0.00 84 937.8
20260904054520 58 306 0.0 0.0 0.00 0.70 0.70 82 937.7
20260904053023 59 306 0.0 0.0 0.00 0.70 0.70 81 937.7
20260904051528 59 306 0.0 1.0 0.00 0.70 0.70 78 937.5
20260904050017 61 306 0.0 1.0 0.00 0.70 0.70 75 937.5
20260904044526 61 306 0.0 1.0 0.00 0.70 0.70 73 937.3
20260904043017 62 306 0.0 0.0 0.00 0.70 0.70 73 937.3
20260904041528 62 306 0.0 0.0 0.00 0.70 0.70 72 937.3
20260904040016 63 306 0.0 0.0 0.00 0.70 0.70 73 937.4
20260904034515 64 306 0.0 0.0 0.00 0.70 0.70 68 937.5
20260904033014 64 306 0.0 0.0 0.00 0.70 0.70 66 937.5
20260904031512 65 306 0.0 0.0 0.00 0.70 0.70 66 937.5
20260904030012 66 306 0.0 0.0 0.00 0.70 0.70 62 937.3
20260904024512 68 306 0.0 0.0 0.00 0.70 0.70 59 937.3
20260904023009 69 306 0.0 0.0 0.00 0.70 0.70 56 937.1
20260904021514 71 306 0.0 0.0 0.00 0.70 0.70 54 936.8
20260904020009 73 306 0.0 0.0 0.00 0.70 0.70 48 936.6
20260904014508 75 306 0.0 0.0 0.00 0.70 0.70 43 936.4
20260904013007 76 306 0.0 0.0 0.00 0.70 0.70 41 936.3
20260904011507 78 306 0.0 2.0 0.00 0.70 0.70 39 936.1
20260904010006 79 306 2.0 5.0 0.00 0.70 0.70 37 935.9
20260904004508 81 310 1.0 8.0 0.00 0.70 0.70 36 935.8
20260904003005 82 292 4.0 9.0 0.00 0.70 0.70 34 935.7
20260904001503 82 263 3.0 8.0 0.00 0.70 0.70 33 935.7
20260904000005 83 292 5.0 11.0 0.00 0.70 0.70 32 935.7
20260903234501 84 273 2.0 8.0 0.00 0.70 0.70 34 935.5
20260903233100 84 265 0.0 8.0 0.00 0.70 0.70 39 935.2
20260903231611 85 197 2.0 4.0 0.00 0.70 0.70 37 935.2
20260903230110 84 266 1.0 7.0 0.00 0.70 0.70 37 935.1
20260903224555 83 275 3.0 8.0 0.00 0.70 0.70 38 935.0
20260903223106 83 275 1.0 7.0 0.00 0.70 0.70 36 934.8
20260903221554 84 243 2.0 7.0 0.00 0.70 0.70 39 934.8
20260903214554 82 272 1.0 7.0 0.00 0.70 0.70 48 934.8
20260903213051 83 239 3.0 7.0 0.00 0.70 0.70 46 934.9
20260903211550 83 236 3.0 7.0 0.00 0.70 0.70 47 934.9
20260903210054 84 222 2.0 7.0 0.00 0.70 0.70 47 934.9
20260903204550 82 205 1.0 5.0 0.00 0.70 0.70 54 935.0
20260903203044 81 196 2.0 5.0 0.00 0.70 0.70 54 935.0
20260903201543 81 195 1.0 3.0 0.00 0.70 0.70 55 934.8
20260903200047 80 203 1.0 5.0 0.00 0.70 0.70 58 934.8